TimeEDT,TemperatureF,Dew PointF,Humidity,Sea Level PressureIn,VisibilityMPH,Wind Direction,Wind SpeedMPH,Gust SpeedMPH,PrecipitationIn,Events,Conditions,WindDirDegrees,DateUTC
12:15 AM,37.4,35.6,93,30.13,10.0,South,6.9,-,N/A,,Mostly Cloudy,170,2013-03-12 04:15:00
12:35 AM,37.4,35.6,93,30.13,8.0,South,8.1,-,N/A,,Mostly Cloudy,170,2013-03-12 04:35:00
12:55 AM,37.4,35.6,93,30.14,7.0,South,6.9,-,N/A,,Overcast,170,2013-03-12 04:55:00
1:15 AM,37.4,35.6,93,30.13,7.0,South,5.8,-,N/A,,Overcast,180,2013-03-12 05:15:00
1:55 AM,39.2,35.6,87,30.12,8.0,SSE,6.9,-,N/A,,Overcast,160,2013-03-12 05:55:00
2:15 AM,39.2,37.4,93,30.13,8.0,South,4.6,-,N/A,,Overcast,180,2013-03-12 06:15:00
2:35 AM,39.2,37.4,93,30.12,10.0,South,8.1,-,N/A,,Overcast,180,2013-03-12 06:35:00
2:55 AM,39.2,37.4,93,30.12,10.0,South,6.9,-,N/A,,Overcast,170,2013-03-12 06:55:00
3:15 AM,39.2,37.4,93,30.11,9.0,SSE,6.9,-,N/A,,Overcast,160,2013-03-12 07:15:00
3:35 AM,39.2,37.4,93,30.11,8.0,South,6.9,-,N/A,,Overcast,170,2013-03-12 07:35:00
3:55 AM,39.2,37.4,93,30.10,8.0,SSE,9.2,-,N/A,,Overcast,160,2013-03-12 07:55:00
4:15 AM,39.2,37.4,93,30.11,7.0,South,6.9,-,N/A,,Overcast,180,2013-03-12 08:15:00
4:35 AM,39.2,37.4,93,30.10,6.0,SSW,5.8,-,N/A,,Overcast,200,2013-03-12 08:35:00
4:55 AM,39.2,37.4,93,30.10,5.0,South,5.8,-,N/A,,Overcast,180,2013-03-12 08:55:00
5:15 AM,39.2,37.4,93,30.10,3.0,South,5.8,-,N/A,,Overcast,180,2013-03-12 09:15:00
5:35 AM,39.2,37.4,93,30.09,1.0,SSE,5.8,-,N/A,,Overcast,160,2013-03-12 09:35:00
5:55 AM,39.2,37.4,93,30.08,1.0,SSE,6.9,-,N/A,,Overcast,150,2013-03-12 09:55:00
6:15 AM,39.2,37.4,93,30.07,0.8,SSE,8.1,-,N/A,,Overcast,150,2013-03-12 10:15:00
6:35 AM,39.2,37.4,93,30.09,1.0,South,8.1,-,N/A,,Overcast,180,2013-03-12 10:35:00
6:55 AM,39.2,37.4,93,30.07,0.8,South,6.9,-,N/A,,Overcast,170,2013-03-12 10:55:00
7:15 AM,39.2,37.4,93,30.08,0.2,South,6.9,-,N/A,,Overcast,190,2013-03-12 11:15:00
7:35 AM,39.2,37.4,93,30.09,0.2,South,6.9,-,N/A,,Overcast,170,2013-03-12 11:35:00
7:55 AM,39.2,37.4,93,30.08,0.2,SSE,6.9,-,N/A,,Overcast,150,2013-03-12 11:55:00
8:15 AM,39.2,37.4,93,30.08,0.2,SSE,6.9,-,N/A,,Overcast,160,2013-03-12 12:15:00
8:35 AM,39.2,37.4,93,30.07,0.2,SSE,5.8,-,N/A,,Overcast,160,2013-03-12 12:35:00
8:55 AM,39.2,39.2,100,30.07,0.2,South,4.6,-,N/A,,Overcast,170,2013-03-12 12:55:00
9:15 AM,41.0,39.2,93,30.07,0.2,SSE,5.8,-,N/A,,Overcast,160,2013-03-12 13:15:00
9:35 AM,41.0,39.2,93,30.06,0.2,SSE,6.9,-,N/A,,Overcast,160,2013-03-12 13:35:00
9:55 AM,41.0,39.2,93,30.05,0.2,SSE,6.9,-,N/A,,Overcast,160,2013-03-12 13:55:00
10:15 AM,42.8,41.0,93,30.06,0.2,South,6.9,-,N/A,,Overcast,170,2013-03-12 14:15:00
10:35 AM,42.8,41.0,93,30.06,0.8,SSE,5.8,-,N/A,,Overcast,160,2013-03-12 14:35:00
10:55 AM,42.8,41.0,93,30.06,1.2,South,6.9,-,N/A,,Overcast,170,2013-03-12 14:55:00
11:15 AM,42.8,41.0,93,30.05,3.0,SSE,8.1,-,N/A,,Overcast,160,2013-03-12 15:15:00
11:35 AM,42.8,42.8,100,30.04,5.0,SSE,6.9,-,N/A,,Overcast,160,2013-03-12 15:35:00
11:55 AM,44.6,42.8,93,30.03,5.0,SSE,8.1,-,N/A,,Overcast,160,2013-03-12 15:55:00
12:15 PM,44.6,42.8,93,30.02,5.0,SSE,8.1,-,N/A,,Overcast,160,2013-03-12 16:15:00
12:35 PM,44.6,42.8,93,30.03,5.0,South,10.4,-,N/A,,Overcast,170,2013-03-12 16:35:00
12:55 PM,44.6,42.8,93,30.02,5.0,SSE,9.2,-,N/A,,Overcast,160,2013-03-12 16:55:00
1:16 PM,44.6,42.8,93,30.01,5.0,SSE,8.1,16.1,N/A,,Overcast,160,2013-03-12 17:16:00
1:35 PM,44.6,42.8,93,30.00,5.0,South,9.2,-,N/A,,Overcast,170,2013-03-12 17:35:00
1:55 PM,44.6,42.8,93,29.99,7.0,SSE,9.2,-,N/A,,Overcast,160,2013-03-12 17:55:00
2:15 PM,46.4,42.8,87,29.98,5.0,SSE,8.1,-,N/A,,Overcast,160,2013-03-12 18:15:00
2:35 PM,46.4,42.8,87,29.97,7.0,SSE,9.2,-,N/A,,Overcast,160,2013-03-12 18:35:00
2:55 PM,46.4,42.8,87,29.97,8.0,SSE,8.1,-,N/A,,Overcast,150,2013-03-12 18:55:00
3:15 PM,46.4,42.8,87,29.95,8.0,SSE,9.2,-,N/A,,Overcast,160,2013-03-12 19:15:00
3:35 PM,46.4,42.8,87,29.95,5.0,SSE,10.4,-,N/A,,Overcast,160,2013-03-12 19:35:00
3:55 PM,44.6,42.8,93,29.94,5.0,SSE,10.4,-,N/A,,Overcast,150,2013-03-12 19:55:00
4:15 PM,44.6,42.8,93,29.93,6.0,SSE,10.4,-,N/A,,Overcast,150,2013-03-12 20:15:00
4:35 PM,44.6,42.8,93,29.93,6.0,SSE,10.4,-,N/A,,Overcast,160,2013-03-12 20:35:00
4:55 PM,44.6,42.8,93,29.92,7.0,SSE,9.2,18.4,N/A,,Overcast,160,2013-03-12 20:55:00
5:15 PM,44.6,42.8,93,29.91,7.0,South,9.2,-,N/A,,Overcast,170,2013-03-12 21:15:00
5:35 PM,44.6,42.8,93,29.90,5.0,SSE,10.4,-,N/A,,Overcast,160,2013-03-12 21:35:00
5:55 PM,44.6,42.8,93,29.90,5.0,South,8.1,16.1,N/A,,Overcast,170,2013-03-12 21:55:00
6:15 PM,44.6,42.8,93,29.89,5.0,SSE,11.5,-,N/A,,Overcast,160,2013-03-12 22:15:00
6:35 PM,44.6,42.8,93,29.88,5.0,South,10.4,18.4,N/A,,Overcast,170,2013-03-12 22:35:00
6:55 PM,44.6,42.8,93,29.87,8.0,SSE,11.5,18.4,N/A,,Overcast,160,2013-03-12 22:55:00
7:35 PM,46.4,44.6,93,29.85,6.0,SSE,15.0,20.7,N/A,,Overcast,160,2013-03-12 23:35:00
7:55 PM,46.4,44.6,93,29.85,7.0,SSE,5.8,-,N/A,,Overcast,160,2013-03-12 23:55:00
8:15 PM,46.4,44.6,93,29.83,6.0,SSE,8.1,-,N/A,,Overcast,160,2013-03-13 00:15:00
8:35 PM,46.4,44.6,93,29.82,6.0,SSE,9.2,-,N/A,,Overcast,160,2013-03-13 00:35:00
8:55 PM,46.4,44.6,93,29.80,7.0,SSE,10.4,-,N/A,,Overcast,160,2013-03-13 00:55:00
9:15 PM,46.4,44.6,93,29.79,8.0,SSE,10.4,21.9,N/A,,Overcast,160,2013-03-13 01:15:00
9:35 PM,46.4,44.6,93,29.78,10.0,SSE,18.4,25.3,N/A,,Overcast,160,2013-03-13 01:35:00
9:55 PM,46.4,46.4,100,29.76,8.0,SSE,13.8,25.3,N/A,,Overcast,160,2013-03-13 01:55:00
10:15 PM,46.4,46.4,100,29.75,6.0,SSE,16.1,21.9,N/A,,Overcast,160,2013-03-13 02:15:00
10:35 PM,46.4,44.6,93,29.74,5.0,South,10.4,24.2,N/A,,Overcast,170,2013-03-13 02:35:00
10:55 PM,46.4,44.6,93,29.73,3.0,South,18.4,25.3,N/A,,Overcast,180,2013-03-13 02:55:00
11:15 PM,46.4,44.6,93,29.73,5.0,South,15.0,25.3,N/A,,Overcast,170,2013-03-13 03:15:00
11:35 PM,46.4,44.6,93,29.72,8.0,South,9.2,-,N/A,,Overcast,170,2013-03-13 03:35:00
11:55 PM,46.4,44.6,93,29.72,8.0,SSE,9.2,-,N/A,,Overcast,160,2013-03-13 03:55:00